Terminal Aerodrome Forecast
Issued by NWS Blacksburg, VA

Home | Current Version | Previous Version | Text Only | Print | Product List | Glossary On
Versions: 1 2 3 4 5 6 7 8 9 10 11 12 13 14 15 16 17 18 19 20 21 22 23
000
FTUS41 KRNK 031121
TAFROA
TAF
KROA 031121Z 0312/0412 29005KT P6SM BKN150
     FM031900 32006KT P6SM VCSH BKN050
     FM040100 31003KT P6SM SCT060=

USA.gov is the U.S. government's official web portal to all federal, state and local government web resources and services.